AirNav   Everest Fuels
 
 351 users online  

K38 Washington County Veteran's Memorial Airport
Washington, Kansas, USA

GOING TO WASHINGTON?


FAA INFORMATION EFFECTIVE 28 MARCH 2019

Location

FAA Identifier: K38
Lat/Long: 39-44-06.6000N / 097-02-51.3000W
39-44.110000N / 097-02.855000W
39.7351667 / -97.0475833
(estimated)
Elevation: 1436.5 ft. / 437.8 m (surveyed)
Variation: 06E (1990)
From city: 5 miles S of WASHINGTON, KS
Time zone: UTC -5 (UTC -6 during Standard Time)
Zip code: 66953

Airport Operations

Airport use: Open to the public
Activation date: 01/1980
Control tower: no
ARTCC: KANSAS CITY CENTER
FSS: WICHITA FLIGHT SERVICE STATION
NOTAMs facility: ICT (NOTAM-D service available)
Attendance: UNATNDD
Wind indicator: yes, WIND INDICATOR OTS INDEFLY.
Segmented circle: no
Lights: ACTVT MIRL RY 17/35 - CTAF.
Beacon: white-green (lighted land airport)
Operates sunset to sunrise.

Airport Communications

CTAF: 122.9
  • APCH/DEP SVC PRVDD BY KANSAS CITY ARTCC ON FREQS 127.35/257.975 (MANHATTAN RCAG).

Nearby radio navigation aids

VOR radial/distance  VOR name  Freq  Var
BIEr195/(36.5)BEATRICE VOR110.6007E
MHKr330/39.5MANHATTAN VOR/DME110.2004E

 
NDB name  Hdg/Dist  Freq  Var  ID
CLAY CENTER010/21.936204ECYW -.-. -.-- .--
FAIRBURY162/27.029306EFBY ..-. -... -.--

Airport Services

Parking: tiedowns

Runway Information

Runway 17/35

Dimensions: 3406 x 60 ft. / 1038 x 18 m
Surface: concrete, in good condition
Runway edge lights: medium intensity
Gradient: N.
RUNWAY 17  RUNWAY 35
Latitude: 39-44.390798N39-43.829835N
Longitude: 097-02.853932W097-02.856890W
Elevation: 1436.5 ft.1425.9 ft.
Gradient: 0.3% UP
Traffic pattern: leftleft
Runway heading: 174 magnetic, 180 true354 magnetic, 000 true
Displaced threshold: 220 ft.no
Markings: nonprecision, in good conditionnonprecision, in good condition
Touchdown point: yes, no lightsyes, no lights
Obstructions: 15 ft. road, 300 ft. from runway, 6:1 slope to clear
RWY 17 APPROACH SLOPE 34:1 TO THE DISP THLD.
68 ft. pline, marked, 1562 ft. from runway, 20:1 slope to clear

Airport Ownership and Management from official FAA records

Ownership: Publicly-owned
Owner: WASHINGTON COUNTY
CO CMSNRS, WASH CO COURTHOUSE
WASHINGTON, KS 66968
Phone 785-325-2974
Manager: BRAD FORTENIER
303 C ST.
WASHINGTON, KS 66968
Phone (785) 747-6640

Airport Operational Statistics

Aircraft based on the field: 3
Single engine airplanes: 3
    
Aircraft operations: avg 33/week *
53% local general aviation
47% transient general aviation
* for 12-month period ending 19 September 2018

Additional Remarks

24 HR PHONE AVBL FOR PUBLIC USE WITH PHONE CARD.

Instrument Procedures

NOTE: All procedures below are presented as PDF files. If you need a reader for these files, you should download the free Adobe Reader.

NOT FOR NAVIGATION. Please procure official charts for flight.
FAA instrument procedures published for use from 28 March 2019 at 0901Z to 25 April 2019 at 0900Z.

 
IAPs - Instrument Approach Procedures
RNAV (GPS) RWY 17   download (190KB)
RNAV (GPS) RWY 35   download (201KB)
NOTE: Special Take-Off Minimums/Departure Procedures apply   download

Other nearby airports with instrument procedures:

KMYZ - Marysville Municipal Airport (21 nm E)
KCYW - Clay Center Municipal Airport (21 nm S)
KFBY - Fairbury Municipal Airport (27 nm N)
KRPB - Belleville Municipal Airport (29 nm W)
KCNK - Blosser Municipal Airport (30 nm W)
 
Loc | Ops | Rwys | IFR | FBO | Links
Com | Nav | Svcs | Stats | Notes

Kansas City Aviation Department
 
Area around K38 (Washington County Veteran's Memorial Airport)
 
Road maps at: MapQuest Bing Google
 
Aerial photo
WARNING: Photo may not be current or correct
Aerial photo of K38 (Washington County Veteran's Memorial Airport)
Do you have a better or more recent aerial photo of Washington County Veteran's Memorial Airport that you would like to share? If so, please send us your photo.

 
Sectional chart

 
Airport distance calculator
Flying to Washington County Veteran's Memorial Airport? Find the distance to fly.

From to K38

Sunrise and sunset
Times for 24-Apr-2019
 Local
(UTC-5)
 Zulu
(UTC)
Morning civil twilight06:1011:10
Sunrise06:3911:39
Sunset20:1401:14
Evening civil twilight20:4301:43

Current date and time
Zulu (UTC)  24-Apr-2019 06:33:29
Local (UTC-5)  24-Apr-2019 01:33:29
 
METAR
KMYZ 
21nm E 
240615Z AUTO 00000KT 10SM CLR 08/08 A2999 RMK AO2
KCNK 
30nm W 
240555Z AUTO 23005KT 10SM CLR 11/08 A2997 RMK AO2 SLP147 T01060078 10156 20106 401780094 58009 $
KHJH 
35nm NW 
240615Z AUTO 00000KT 7SM CLR 07/06 A2999 RMK AO2 T00720061
KBIE 
36nm N 
240615Z AUTO 00000KT 10SM CLR 10/08 A2999 RMK AO2 T00990080
KMHK 
40nm SE 
240552Z AUTO 00000KT 8SM -RA FEW075 OVC090 11/09 A2999 RMK AO2 SLP156 P0003 60005 T01110094 10133 20106 401330106 58004
TAF
KMHK 
40nm SE 
240520Z 2406/2506 15002KT P6SM VCSH BKN080 FM240800 00000KT P6SM SCT080 FM241400 35003KT P6SM SCT150
KFRI 
44nm S 
240340Z 2403/2506 03009KT 9999 BKN020 OVC080 QNH3000INS BECMG 2407/2408 VRB06KT 6000 BR OVC008 QNH2997INS BECMG 2416/2417 27006KT 9999 NSW BKN015 QNH2996INS BECMG 2418/2419 22006KT 9999 FEW030 QNH2986INS BECMG 2420/2421 VRB06KT 9999 SKC QNH2986INS TX21/2421Z TN08/2412Z
NOTAMs
Click for the latest NOTAMs
NOTAMs are issued by the DoD/FAA and will open in a separate window not controlled by AirNav.

 

 
 

Would you like to see your business listed on this page?

 If your business provides an interesting product or service to pilots, flight crews, aircraft, or users of the Washington County Veteran's Memorial Airport, you should consider listing it here.  To start the listing process, click on the button below
 
Add a business
 

Other Pages about Washington County Veteran's Memorial Airport

Update a link
 
Copyright © AirNav, LLC. All rights reserved. Privacy Policy  Contact